Theta_e
326 327 328 327 327 327 330 330 328 328 330 331 329 331 329 327 333 336 335 340 345 345 352 352 347 351 352 349 350 349 348 352 353 353 352 351 350 347 345 346 347 348 348 350 351 350 348 347 346 346 346 348 348 349 350 347 340 337 337 338 340 339 337
328 329 328 328 327 328 331 328 328 333 334 333 334 333 330 328 330 330 329 336 340 341 352 357 349 350 354 351 351 349 349 352 353 354 353 351 351 347 346 346 346 347 348 348 350 350 349 348 346 346 346 347 348 347 349 349 343 339 338 340 341 341 339
328 328 328 329 330 330 331 329 330 335 332 334 338 333 329 329 331 330 328 335 342 342 348 353 349 351 354 351 351 350 350 350 351 353 353 352 352 348 348 349 347 347 348 348 350 350 350 348 347 346 346 346 348 347 347 348 345 341 339 340 342 342 341
326 328 327 327 329 331 330 330 331 333 332 334 337 332 331 332 332 333 331 335 345 347 347 352 353 354 354 352 355 354 349 348 349 351 352 352 351 349 350 351 348 347 349 348 349 350 351 350 347 347 346 347 348 347 347 348 347 344 341 341 342 343 343
323 325 326 327 330 331 331 331 331 330 331 334 335 334 334 332 331 334 332 333 344 350 349 353 353 352 353 353 356 354 349 347 348 349 351 353 352 351 351 350 348 348 349 348 348 349 349 351 350 348 347 348 348 347 347 348 348 347 345 344 344 343 343
320 322 327 328 330 331 330 332 331 329 334 342 343 340 340 338 335 333 330 332 345 351 348 351 352 351 353 350 349 351 349 348 347 346 348 351 351 351 350 350 349 349 349 348 348 349 349 350 351 350 348 348 347 347 348 348 349 350 347 347 347 346 345
321 324 327 327 329 330 329 331 333 331 335 343 344 341 342 344 340 334 329 332 345 351 346 349 351 350 351 348 346 348 348 348 347 345 345 346 350 352 350 349 349 348 349 348 347 349 349 350 351 351 350 349 348 348 349 349 351 352 350 351 351 351 351
328 325 325 328 329 330 329 332 334 332 332 337 342 342 340 339 336 335 334 336 347 352 347 344 343 345 348 348 348 349 348 348 348 347 345 344 348 351 350 350 349 347 347 348 347 348 349 349 350 351 351 349 348 349 350 350 352 353 353 353 354 353 353
328 326 326 327 329 330 332 335 336 334 333 334 337 339 340 337 333 334 334 338 347 352 347 345 344 344 347 347 347 348 347 348 350 350 347 345 346 349 350 350 349 348 347 347 346 348 349 349 349 351 351 350 349 349 351 351 352 353 354 353 354 353 352
324 325 325 326 328 328 330 333 334 333 333 334 337 340 341 339 335 333 335 339 345 346 346 350 352 349 348 348 346 347 348 348 349 351 348 346 348 351 352 351 348 347 347 347 347 347 348 349 349 350 350 351 351 350 351 352 352 354 354 352 353 353 352
325 326 327 328 328 325 324 327 330 329 329 335 341 341 339 341 338 334 339 345 345 345 349 356 355 349 350 350 347 346 348 348 348 349 348 348 349 352 353 352 349 348 347 346 347 347 347 348 349 350 350 350 351 351 352 352 352 353 353 352 352 352 351
325 325 324 324 325 324 322 324 326 328 331 337 340 337 338 344 340 336 345 350 345 346 352 354 349 348 351 350 345 343 345 346 347 347 346 345 346 350 353 353 350 349 347 346 346 347 347 347 348 350 351 350 350 350 351 351 351 352 351 351 351 351 351
323 323 323 323 324 324 323 325 327 328 329 333 336 336 338 343 339 339 349 351 345 346 349 347 346 348 350 348 344 342 343 343 345 345 345 344 343 345 349 352 352 350 348 347 347 347 348 348 347 348 349 350 350 350 351 350 350 351 351 351 351 351 351
323 323 323 323 323 322 322 325 328 328 327 328 330 332 335 340 339 341 347 348 347 349 349 347 347 347 346 343 342 342 342 342 343 344 345 344 344 344 345 348 351 352 351 349 347 346 348 349 348 347 347 350 351 351 352 352 351 350 351 351 351 351 351
322 322 323 322 321 323 320 321 324 325 326 327 327 328 330 334 337 340 340 342 349 351 347 347 347 345 344 343 341 342 342 343 344 344 343 344 344 346 346 346 349 351 352 351 348 346 347 348 349 347 347 349 350 350 351 351 352 352 352 351 351 350 351
322 322 322 322 322 322 320 321 326 327 325 325 326 330 333 334 337 339 337 340 350 352 347 346 347 345 345 343 342 343 343 343 343 343 343 344 345 347 349 349 349 350 352 351 349 348 347 348 348 347 347 348 348 348 350 351 351 350 352 353 353 353 352
322 322 322 323 324 323 323 326 329 329 329 330 328 331 337 338 337 336 336 344 354 352 347 347 347 345 345 344 342 343 343 342 342 343 344 346 347 348 348 349 349 349 350 350 349 349 348 348 348 347 347 347 348 349 349 350 350 348 350 352 354 355 356
323 324 325 324 323 322 327 334 334 330 331 333 331 330 333 338 340 340 341 347 352 349 347 348 346 344 344 344 342 342 343 343 344 345 346 346 347 348 347 347 348 348 348 349 348 348 348 348 348 348 347 346 348 349 348 349 351 351 350 350 352 353 355
324 326 326 323 322 326 332 335 334 332 330 330 331 331 333 339 347 351 350 348 347 347 346 345 344 342 342 343 342 343 343 344 345 346 346 346 346 347 346 346 346 347 347 347 347 348 348 348 348 348 348 347 348 349 350 350 353 354 352 351 350 349 352
325 324 323 323 324 329 334 333 332 332 331 330 331 335 338 341 345 350 349 346 346 346 343 343 343 342 342 342 343 343 343 343 343 344 345 345 345 346 346 345 345 346 346 345 346 347 348 348 348 347 348 349 349 349 351 352 353 353 350 349 351 350 350
324 321 322 325 325 327 334 337 333 331 331 332 334 338 340 341 341 344 346 346 345 344 343 343 342 341 342 344 343 343 342 342 342 342 342 343 343 344 344 344 344 344 345 345 345 346 347 349 349 348 347 347 347 347 349 350 350 350 347 349 353 354 352
327 323 322 324 323 324 332 336 332 329 329 328 332 339 341 340 339 342 345 345 344 342 342 342 341 342 346 348 346 343 342 342 342 341 341 342 342 343 343 343 343 344 344 344 344 346 346 347 350 351 349 348 347 349 350 349 348 348 347 349 352 352 349
328 323 322 322 321 325 336 337 330 328 328 327 330 337 340 341 338 340 344 344 343 342 341 339 341 344 348 349 346 343 342 342 342 342 342 342 342 342 342 343 342 343 343 343 344 345 344 344 348 352 352 351 351 351 351 349 345 343 341 344 348 350 348
325 323 322 321 321 329 340 337 329 328 328 329 331 334 338 341 336 337 341 342 342 343 340 339 342 346 348 347 344 342 342 342 341 342 342 342 342 342 341 342 342 342 343 343 343 343 342 342 346 351 353 353 350 350 351 351 349 348 347 348 349 351 351
324 324 322 320 324 335 341 335 330 328 327 331 334 335 340 340 334 335 338 339 341 342 340 341 343 343 343 343 342 342 342 341 341 341 341 340 340 340 340 341 342 342 342 343 343 342 342 342 344 349 353 353 351 351 352 353 352 351 351 352 352 350 351
325 326 324 321 327 338 337 330 329 330 333 338 339 338 338 335 334 337 338 338 342 343 341 342 343 341 341 342 341 341 341 341 341 340 340 339 339 339 340 340 341 341 342 342 342 341 341 342 342 346 351 353 353 353 353 353 352 350 350 352 351 349 350
327 326 323 323 330 336 332 331 336 338 338 340 339 334 334 334 334 337 338 339 342 342 342 342 341 340 341 341 340 340 340 340 340 339 339 339 338 338 338 338 339 340 340 340 340 339 339 340 341 343 346 348 349 349 349 349 348 346 346 347 348 348 349
327 326 328 331 335 335 330 333 339 339 337 336 332 330 334 336 334 335 337 337 337 339 341 341 340 340 341 340 340 340 339 339 338 338 338 338 337 337 337 336 337 338 337 338 338 338 337 338 340 341 342 344 344 345 345 345 345 345 346 346 346 346 346
329 331 335 334 332 330 329 331 335 334 333 332 331 331 333 334 334 335 336 334 335 340 342 340 339 340 340 340 340 339 338 337 337 337 337 337 336 336 336 336 336 336 336 335 336 336 337 338 339 340 340 341 342 342 342 343 344 344 344 344 344 344 343
330 328 332 332 329 329 330 330 331 331 331 330 330 332 334 335 335 335 336 335 336 339 340 340 339 339 339 339 339 338 338 337 336 336 335 334 334 334 334 335 335 335 334 334 334 334 335 337 338 340 340 340 341 341 341 341 341 342 342 342 341 340 340
329 329 333 334 331 330 331 331 332 334 335 333 333 333 334 337 337 336 337 337 336 337 339 340 338 338 338 338 337 337 337 336 335 335 333 333 333 333 332 333 334 334 335 334 332 330 331 334 336 338 338 339 338 338 339 339 339 338 337 336 336 336 336
332 333 333 332 331 331 332 331 332 335 336 336 336 335 335 337 338 337 337 337 336 337 339 339 338 337 337 336 336 337 336 335 335 334 332 331 331 331 331 332 333 333 333 332 329 327 327 331 334 335 336 336 335 334 334 333 334 334 333 331 332 333 333
332 335 334 332 334 336 334 332 333 334 334 334 334 334 335 337 338 338 337 337 338 338 338 338 337 336 335 335 336 336 334 333 333 332 330 329 329 328 329 329 329 329 329 328 326 324 323 324 327 327 328 329 328 328 327 325 325 326 326 327 328 328 328
336 340 337 333 335 338 335 332 333 333 332 332 332 333 336 339 339 339 338 338 340 340 338 337 336 335 335 335 335 333 331 331 331 329 328 327 327 327 328 328 326 324 324 324 324 323 323 323 324 323 323 323 322 321 322 322 321 321 320 319 319 320 321
338 338 332 329 333 337 334 333 335 334 333 334 334 335 338 340 339 339 339 339 340 339 337 336 335 334 334 334 333 331 330 329 329 328 327 327 328 329 329 328 326 324 325 326 326 325 326 326 326 326 326 325 323 321 321 323 324 323 320 316 313 313 313
335 333 331 330 334 336 335 335 336 332 330 334 338 338 339 339 338 339 339 339 339 337 335 334 334 334 334 333 331 330 329 329 329 328 327 327 327 327 326 327 327 327 328 330 329 328 328 328 327 327 327 325 324 323 323 322 321 320 318 315 314 315 315
332 332 332 331 333 335 334 334 333 330 328 331 334 335 336 337 337 337 338 339 337 335 334 333 334 333 333 331 330 329 329 328 328 328 327 326 326 326 326 327 328 328 329 329 329 329 330 329 329 329 328 327 326 325 324 323 321 320 320 321 321 322 322
Wind_Speed
8 4 4 4 3 1 2 3 3 1 1 2 2 1 4 3 2 1 2 0 1 2 1 3 6 7 7 8 10 13 13 14 17 19 21 22 22 22 20 24 31 33 32 32 32 34 32 29 32 35 33 32 31 28 26 26 28 29 27 26 25 25 24
8 10 6 1 4 6 3 1 1 3 3 5 3 1 4 3 1 2 0 2 1 1 1 3 4 5 3 4 4 7 12 15 15 15 20 24 26 24 19 18 26 32 32 31 32 34 34 31 30 32 33 33 32 30 26 24 27 29 28 27 25 25 25
7 8 7 2 7 9 5 2 1 1 3 2 1 1 1 1 0 2 3 4 2 2 2 2 3 3 3 3 3 2 6 12 14 14 17 23 26 25 21 16 18 26 32 32 30 31 33 32 31 29 30 33 33 31 27 23 24 27 28 27 26 25 25
3 2 3 3 2 4 5 3 1 2 3 1 1 1 1 1 1 1 2 2 1 2 1 2 2 2 3 4 3 2 1 5 12 15 17 21 25 27 24 19 16 18 26 33 31 29 31 31 32 30 28 30 32 31 28 25 23 25 27 28 27 26 25
2 1 2 3 5 4 4 4 3 1 2 2 2 2 1 2 1 1 1 1 2 2 0 3 3 1 3 3 2 0 2 3 6 11 15 19 24 29 27 23 20 17 20 31 32 29 30 30 30 30 29 30 31 30 29 26 24 25 27 28 27 26 25
3 2 2 2 8 7 5 4 2 1 1 3 2 2 1 2 1 2 3 3 3 1 1 3 4 2 1 3 4 4 5 5 6 8 12 14 18 26 28 26 26 19 15 24 31 30 31 31 30 30 30 30 31 30 29 28 26 25 27 28 27 26 25
3 4 5 4 9 7 5 5 2 1 3 5 3 2 1 1 1 3 5 3 3 3 3 5 7 9 5 2 5 6 6 6 6 7 10 12 12 18 25 29 31 26 15 16 25 29 31 33 32 31 30 30 31 30 29 28 28 27 27 27 26 25 24
4 6 4 4 8 5 4 4 3 3 3 3 4 4 3 2 2 3 1 1 4 4 3 7 9 12 10 7 7 6 6 7 5 6 9 12 12 13 19 25 32 33 24 16 19 25 30 32 33 32 31 31 30 30 30 29 29 28 27 27 27 26 25
5 5 3 3 6 4 2 2 3 2 1 2 4 4 3 2 1 1 2 2 4 3 1 3 1 5 8 9 11 12 13 14 11 7 6 9 12 13 15 21 29 35 32 21 16 21 28 31 33 33 32 32 31 30 31 30 28 28 27 26 27 27 25
4 3 1 2 1 2 2 3 5 5 5 5 5 4 3 1 1 1 2 4 4 2 1 2 4 2 2 7 8 10 13 17 16 13 8 7 10 11 12 17 24 31 33 26 17 18 27 31 32 33 33 32 32 31 31 30 28 27 26 25 27 27 26
4 5 5 6 5 2 2 4 7 5 4 5 6 4 3 3 2 1 3 5 3 3 4 6 4 2 2 5 3 4 7 9 12 15 14 10 9 10 12 15 18 25 30 28 20 17 25 30 30 32 34 34 33 31 31 30 29 28 26 25 26 27 26
7 8 9 11 10 8 7 6 4 2 3 9 8 3 4 5 4 2 5 6 4 4 6 7 4 3 5 4 2 3 5 6 7 9 14 18 16 10 11 14 16 20 28 31 24 18 22 29 30 27 28 33 34 32 32 32 31 29 27 26 27 27 26
6 7 9 11 10 8 6 2 4 3 2 7 7 6 7 8 5 4 6 8 5 5 6 7 5 4 2 1 4 5 7 9 8 6 9 18 24 19 13 13 15 17 22 29 27 20 18 25 31 28 24 27 30 29 30 31 32 30 26 27 28 26 26
6 8 10 12 9 7 6 3 6 6 5 6 6 6 7 9 8 7 8 9 4 1 2 2 4 6 6 7 7 8 9 9 9 8 9 14 20 20 18 15 14 15 18 23 27 24 18 19 28 32 28 26 28 27 24 23 27 29 28 28 29 28 28
5 7 9 9 8 8 10 9 6 5 6 5 5 5 4 4 4 4 5 7 3 1 3 8 9 8 8 8 7 6 5 4 5 7 9 12 13 13 15 16 14 13 15 19 24 26 23 20 24 31 32 28 27 28 24 20 21 26 27 28 30 30 30
4 6 7 9 8 8 9 6 2 4 3 1 1 1 2 2 2 3 3 2 2 2 5 10 9 8 8 7 5 2 1 3 2 5 9 11 11 12 14 15 13 11 13 17 20 24 26 24 23 27 30 28 26 28 28 24 24 26 27 27 27 27 29
3 6 8 8 7 6 5 3 3 6 5 4 4 5 5 4 3 3 1 3 4 4 7 8 5 5 5 3 2 1 2 3 1 3 6 8 10 11 13 13 12 12 14 15 18 21 24 25 24 24 25 26 26 28 28 25 26 29 30 29 26 20 21
3 7 7 7 6 4 4 4 2 4 5 5 4 5 6 5 4 4 3 2 3 5 6 7 5 4 3 1 1 1 1 1 1 1 1 4 6 10 13 14 14 14 13 12 14 20 24 26 26 25 25 26 26 27 28 27 26 29 29 29 28 19 14
2 5 6 5 2 4 5 5 3 5 6 6 5 6 9 9 8 9 9 8 8 8 9 9 9 9 6 3 1 0 0 0 0 1 3 5 7 9 12 15 15 15 14 13 12 15 21 25 26 27 27 28 28 28 29 28 27 27 26 26 28 26 19
1 3 2 0 4 4 3 3 2 4 6 5 5 6 9 9 8 9 9 8 8 10 10 9 10 11 8 4 1 1 2 3 4 4 3 5 7 9 12 14 15 15 15 14 14 14 17 20 24 27 28 30 31 30 28 27 26 25 24 23 26 27 25
2 1 2 4 4 6 5 2 1 4 7 6 5 5 5 7 7 8 8 6 7 9 8 7 7 9 6 3 1 3 5 5 6 5 4 6 7 8 11 12 14 15 14 14 14 14 16 19 24 29 31 30 29 27 27 27 25 24 24 24 24 23 23
2 2 2 3 4 3 2 1 1 7 13 12 8 6 2 5 8 12 9 6 6 7 6 5 5 5 3 1 2 3 5 7 7 6 5 6 7 8 9 9 11 12 11 12 12 14 18 20 22 31 31 30 28 26 26 26 24 23 23 23 24 22 21
2 3 0 2 2 2 2 1 3 11 17 13 8 7 1 5 6 13 10 7 7 7 6 5 4 2 1 0 1 1 4 7 7 6 6 6 6 7 8 8 9 10 10 13 13 14 21 15 15 32 29 27 29 27 25 26 25 24 24 23 23 22 21
2 3 2 2 1 1 3 4 8 13 14 10 7 5 2 5 3 11 10 8 7 7 6 5 2 1 1 2 3 1 2 5 5 4 4 5 5 7 7 6 7 9 10 15 16 15 19 12 14 32 30 26 27 26 25 25 24 23 24 24 21 18 18
1 2 3 3 1 1 4 6 12 11 8 6 5 2 6 5 4 8 7 6 6 6 7 5 2 3 5 6 7 5 3 0 2 1 2 4 5 5 5 4 5 7 9 12 15 13 12 9 7 21 28 29 27 27 26 24 20 17 19 21 18 15 16
1 2 3 2 1 3 3 6 14 13 4 2 2 6 9 5 7 9 6 5 6 7 7 6 5 7 8 9 9 8 7 6 5 3 1 2 2 2 2 2 2 4 6 7 10 10 7 4 1 8 17 23 24 22 21 20 16 13 13 16 15 14 17
1 2 3 2 1 3 3 5 8 8 2 4 5 8 10 7 9 10 8 6 6 7 9 8 8 9 10 9 10 10 10 9 7 5 4 3 3 4 3 4 4 4 4 5 5 5 5 5 6 7 12 17 19 18 16 14 12 10 11 14 14 15 17
1 1 1 2 5 4 3 4 4 3 5 6 4 5 9 10 10 10 9 7 6 8 9 10 9 9 10 10 11 12 10 8 6 5 4 5 6 6 6 5 5 6 8 7 7 9 13 14 14 15 18 21 22 22 22 20 18 17 18 19 18 18 18
2 2 3 5 10 11 4 8 10 7 5 4 2 4 10 11 8 7 7 6 8 10 10 10 10 10 10 11 11 9 8 6 6 7 7 7 8 8 7 6 6 7 11 13 13 14 17 19 18 18 21 26 28 29 27 25 24 24 24 23 23 22 22
1 3 4 7 7 5 6 13 12 6 5 4 4 7 9 10 6 4 4 6 8 11 11 11 11 11 12 12 10 8 8 9 9 10 11 10 10 9 9 9 10 12 16 19 18 17 18 19 19 19 22 26 29 29 28 27 28 30 30 30 30 29 29
1 2 3 7 8 8 11 14 12 10 9 8 5 5 6 7 5 2 3 6 7 9 12 14 12 11 13 13 12 11 11 12 12 12 13 11 10 10 12 14 15 17 20 21 20 20 19 19 20 22 25 28 30 32 32 32 34 35 35 35 34 32 31
4 3 3 6 13 14 13 12 12 12 10 7 5 5 4 4 4 2 2 5 7 9 14 15 13 13 15 14 15 15 15 14 14 12 11 10 10 11 14 17 17 19 22 24 22 21 21 19 20 23 25 27 29 31 33 33 34 34 34 33 31 29 27
1 1 2 5 13 13 12 12 11 9 8 6 4 3 1 3 5 4 3 4 7 10 13 14 14 16 17 15 17 19 17 16 16 13 12 13 14 17 19 21 20 22 24 25 25 24 24 24 23 23 23 24 26 28 29 28 29 29 28 27 26 25 24
1 2 3 3 7 6 7 11 9 6 7 5 2 1 3 4 6 6 6 7 9 9 11 13 15 18 18 17 19 20 19 18 18 16 17 20 21 21 22 22 23 25 27 27 27 27 26 24 22 20 20 20 22 25 25 24 25 26 25 24 24 23 22
2 1 1 5 10 9 9 11 9 6 5 4 1 2 3 4 5 7 9 12 12 12 12 14 16 18 19 20 21 21 20 19 19 19 20 22 22 21 21 22 25 27 26 25 26 26 24 21 20 19 18 17 18 20 21 20 20 21 22 23 24 24 23
7 8 8 12 14 13 11 9 6 3 3 4 2 1 2 2 5 7 11 13 14 16 17 16 16 18 19 20 21 22 21 20 20 19 20 21 22 23 23 24 25 25 23 22 23 24 23 21 20 20 21 20 19 18 19 19 20 21 23 25 26 26 25
9 12 14 15 16 15 11 8 6 5 4 4 3 2 2 3 4 7 10 13 15 18 20 20 19 18 18 20 22 22 21 21 20 20 21 22 23 24 24 23 22 22 24 24 24 23 21 19 19 19 19 19 18 18 19 21 23 25 26 26 26 25 24
Wind_Direction
150 98 73 57 59 131 319 13 42 322 322 69 76 322 335 19 87 200 185 173 314 94 41 359 62 62 39 67 121 162 190 196 186 192 202 207 214 217 212 196 189 192 195 195 196 195 193 191 188 187 191 199 205 209 211 208 203 202 201 199 199 199 200
122 108 119 6 45 93 99 18 303 302 17 55 72 47 348 12 74 279 290 101 13 318 297 328 50 67 59 53 84 160 178 179 183 199 208 212 213 210 219 217 196 191 194 196 199 199 196 193 190 189 193 201 207 211 213 211 204 203 204 203 202 202 203
135 135 142 118 52 71 95 134 234 60 62 32 6 98 20 9 67 304 349 63 60 325 308 343 19 38 86 90 60 116 164 174 185 200 212 220 218 211 222 237 211 195 193 194 199 199 197 197 194 191 195 203 207 210 213 213 209 206 205 206 206 205 205
154 152 89 115 103 77 85 72 36 96 122 166 346 51 128 66 16 284 340 52 66 268 316 356 324 336 41 74 74 28 351 192 191 195 205 215 216 216 227 234 220 210 199 192 194 198 197 198 197 196 199 203 206 208 209 212 213 209 208 209 209 209 208
330 67 40 134 153 139 100 66 48 62 72 68 30 18 69 51 348 277 301 303 264 238 358 342 324 357 39 72 101 335 293 257 219 202 198 205 212 218 227 225 218 227 214 195 194 198 199 198 198 201 204 203 204 206 207 211 215 212 210 210 210 211 210
1 40 337 106 112 107 111 104 111 171 129 87 64 353 2 54 55 291 301 282 274 306 360 325 326 355 80 167 185 215 224 237 249 229 206 206 217 221 224 221 215 222 221 200 195 196 198 198 197 199 203 202 202 204 206 210 213 215 212 208 209 212 212
350 338 328 79 97 96 110 116 102 90 107 106 113 196 255 70 142 276 294 284 271 298 343 358 352 347 338 220 222 223 222 241 258 256 233 219 225 227 224 222 217 218 222 205 199 198 197 199 200 200 200 198 200 203 205 207 210 214 212 206 207 210 212
335 318 306 90 89 83 96 88 59 62 94 122 137 155 156 129 197 241 276 292 275 281 360 29 4 337 331 328 323 311 292 293 294 287 259 230 224 230 230 228 222 220 223 216 207 206 202 200 201 202 201 199 200 203 206 210 212 214 211 204 204 210 211
338 328 311 31 50 63 106 97 98 114 121 102 109 115 100 101 199 138 118 243 259 252 43 68 82 326 332 328 329 332 324 320 321 317 285 233 223 227 235 236 224 220 223 223 218 213 206 202 201 202 201 201 203 205 208 212 213 213 211 203 202 210 213
305 308 281 288 300 159 186 179 164 173 182 156 133 112 92 116 196 135 158 217 249 272 324 259 200 133 342 300 318 347 338 328 330 332 315 247 228 233 246 241 223 218 222 225 227 216 205 202 201 202 204 202 203 206 207 211 212 209 209 206 204 210 214
243 258 261 275 269 237 238 210 182 176 177 145 113 97 134 167 170 231 203 190 225 258 248 255 248 131 195 254 290 351 330 320 331 338 330 300 257 242 257 258 235 222 220 224 231 218 204 202 201 202 206 206 206 207 207 209 212 210 209 206 205 211 216
240 255 268 282 279 261 251 229 182 87 92 122 122 153 189 147 110 279 226 185 196 228 220 235 243 201 214 224 227 286 303 312 321 342 341 326 312 282 259 263 256 236 224 224 228 217 205 206 205 205 207 206 207 210 211 211 212 211 208 205 206 211 214
267 283 287 290 285 269 265 216 127 94 115 150 168 194 174 148 149 204 199 188 202 213 207 218 210 178 194 28 16 349 359 2 345 355 358 337 331 325 299 274 269 257 236 226 223 219 212 210 210 211 210 205 204 207 209 210 210 208 205 203 206 211 212
307 306 297 301 311 313 306 260 188 186 187 188 212 215 179 170 184 190 183 182 188 215 180 156 94 86 80 58 34 17 27 24 356 352 0 342 331 327 320 303 283 267 250 234 225 224 221 212 210 212 210 207 206 203 200 200 202 204 205 206 207 209 212
290 280 277 283 287 279 275 269 238 199 180 185 220 228 203 185 189 188 181 171 157 360 68 86 81 83 86 78 63 43 30 15 349 352 360 346 332 332 333 320 296 272 258 245 234 230 227 220 212 211 212 212 210 207 203 199 196 195 199 205 208 211 214
247 269 282 284 285 276 270 282 15 78 107 111 301 250 135 106 88 75 75 124 170 196 118 101 95 95 92 91 98 98 305 296 334 4 5 357 352 353 346 333 317 297 277 258 243 235 231 227 218 214 215 216 214 211 210 211 209 202 198 199 202 207 212
278 289 299 308 337 341 296 282 52 53 49 44 19 21 57 74 65 76 134 203 196 165 129 111 95 84 89 106 159 194 276 289 342 16 5 5 360 347 335 333 328 310 294 275 253 240 232 228 227 225 222 217 214 213 212 214 215 213 210 205 200 200 206
297 297 324 348 5 348 269 236 114 66 53 58 50 30 36 47 49 56 83 115 93 87 99 111 117 116 135 213 296 344 310 336 80 112 337 329 331 327 321 318 313 307 305 296 266 245 234 229 231 235 230 222 216 211 213 218 219 215 213 212 211 215 216
289 311 2 17 326 263 233 215 173 125 93 66 55 40 36 51 69 70 72 82 90 94 105 125 139 146 157 171 165 127 199 258 246 200 227 263 286 304 307 305 303 305 307 303 284 256 240 235 237 240 234 224 218 212 211 216 219 214 210 212 219 226 229
19 340 15 261 269 285 256 226 201 133 106 82 75 56 38 45 77 90 91 97 106 114 122 136 144 143 144 149 165 278 290 281 280 276 272 284 291 293 298 300 301 302 300 299 297 276 247 234 234 235 228 218 212 209 210 215 215 211 210 214 222 225 225
141 160 261 263 293 319 324 328 6 98 98 97 108 92 35 13 49 87 104 104 99 110 128 149 151 144 139 128 269 290 305 316 319 319 308 307 306 298 297 298 298 299 297 296 292 274 252 237 227 221 216 209 204 202 204 210 209 204 205 211 217 219 218
121 84 341 305 309 305 284 249 103 98 97 99 105 104 55 341 42 82 99 108 114 128 145 157 158 160 165 197 260 286 320 338 345 349 333 314 311 307 303 299 300 303 302 297 284 270 275 267 226 206 200 193 191 191 191 193 195 195 198 205 211 215 215
92 86 83 287 294 270 251 289 66 84 90 90 82 82 26 306 51 88 102 119 139 158 168 166 162 165 190 45 152 289 330 336 340 345 340 329 320 317 311 300 301 307 307 307 300 284 295 296 182 174 178 175 176 182 184 185 191 196 200 206 211 212 208
109 129 194 255 229 256 313 13 55 73 84 84 70 81 228 265 92 107 123 144 163 170 167 161 143 96 108 125 140 183 301 321 328 334 335 328 316 311 309 296 296 304 305 312 317 309 309 326 135 154 167 172 176 182 183 183 187 190 194 199 201 199 197
133 158 227 247 159 272 316 29 41 41 58 70 66 137 220 236 159 137 142 154 165 157 148 149 129 114 131 147 158 171 182 168 357 352 311 306 302 301 307 296 292 311 315 313 324 331 323 327 118 148 163 171 175 181 182 180 178 175 180 187 188 187 192
225 200 244 250 78 294 299 52 38 24 31 118 151 190 202 191 148 148 149 146 148 144 148 159 151 143 149 159 167 169 157 148 147 150 183 304 320 301 303 302 288 322 336 328 333 348 347 333 66 149 168 170 169 173 178 182 186 187 190 197 200 193 190
212 224 260 253 223 305 350 55 38 19 55 171 180 184 182 153 130 137 138 138 150 158 159 158 152 155 165 175 179 171 160 157 156 151 153 146 122 118 100 73 67 54 41 25 19 40 74 110 128 146 162 162 157 155 154 158 167 170 173 183 186 179 178
149 175 264 223 211 245 354 85 135 128 127 147 160 158 149 135 126 132 136 144 163 168 166 164 164 169 177 184 183 175 167 161 147 136 147 150 133 119 111 102 84 68 65 64 76 100 112 121 131 135 134 131 128 125 124 127 134 138 141 149 153 152 154
164 207 210 197 208 221 200 118 126 123 109 119 90 98 127 137 138 137 146 163 165 162 170 175 173 177 183 182 178 172 160 145 132 131 133 125 119 117 118 121 108 85 84 93 102 110 113 117 122 123 119 116 114 115 118 123 128 130 132 135 135 132 129
310 299 203 172 178 191 128 108 110 103 91 98 65 70 110 137 148 136 150 178 174 171 178 178 174 183 188 178 167 156 141 129 119 117 118 116 119 126 123 115 111 109 107 106 103 101 104 109 114 117 116 114 114 116 119 121 121 121 121 121 120 119 117
91 355 179 148 117 98 94 93 90 82 84 97 91 70 100 136 154 148 150 174 189 192 185 179 182 190 185 172 162 151 138 130 125 120 121 125 128 127 121 114 113 117 119 115 104 94 95 103 110 114 116 117 117 118 118 118 117 117 116 115 116 117 119
179 212 218 131 107 101 96 92 88 83 84 91 95 92 104 141 177 244 234 185 199 201 187 187 192 185 174 169 163 151 141 139 139 136 133 133 127 121 118 117 118 120 120 118 110 96 92 100 107 109 112 116 116 114 114 116 118 119 118 117 118 119 118
154 249 313 77 92 94 92 93 90 84 87 89 83 86 154 187 183 203 224 197 200 203 195 193 189 175 169 168 160 152 147 146 145 140 134 126 120 118 116 115 115 115 113 111 106 96 89 92 96 98 101 106 108 107 107 109 110 112 113 113 114 114 114
18 293 302 48 94 103 92 91 90 88 91 89 81 141 155 159 164 179 192 182 183 195 197 191 181 170 164 163 158 151 147 148 147 139 129 122 118 116 114 110 108 107 106 105 104 99 94 93 93 91 88 91 97 102 103 102 103 105 107 109 110 111 112
113 184 209 97 105 109 100 96 106 117 103 88 91 173 144 148 165 180 187 185 181 179 179 180 176 166 159 159 158 150 146 149 147 139 132 127 122 117 116 116 115 112 109 105 102 101 101 101 103 102 98 95 98 100 100 101 106 110 111 109 108 108 109
98 95 97 103 107 108 108 109 111 104 96 107 122 106 109 167 181 185 190 191 182 170 166 168 168 161 157 160 160 153 150 150 147 143 140 136 129 125 125 127 126 122 119 115 111 109 109 108 108 110 109 108 107 106 106 109 112 112 109 106 104 104 104
123 111 105 111 116 116 116 113 87 58 71 119 136 128 135 170 188 194 193 190 180 168 162 159 159 160 159 160 161 158 153 151 151 150 146 140 134 131 130 129 126 122 120 119 118 117 116 112 108 105 104 106 108 109 112 115 113 110 107 105 103 102 103